Date,TemperatureHighF,TemperatureAvgF,TemperatureLowF,DewpointHighF,DewpointAvgF,DewpointLowF,HumidityHigh,HumidityAvg,HumidityLow,PressureMaxIn,PressureMinIn,WindSpeedMaxMPH,WindSpeedAvgMPH,GustSpeedMaxMPH,PrecipitationSumIn
2013-1-5,44.6,41.4,38.3,40.5,37.7,33.8,97,87,69,30.09,30.00,3,0,9,0.00
2013-1-6,46.0,41.4,38.7,41.9,39.2,37.4,98,92,73,30.06,29.88,3,1,9,0.20
2013-1-7,49.8,45.8,39.4,48.4,43.3,38.8,98,91,78,30.03,29.71,6,3,17,0.24
2013-1-8,53.1,46.4,40.3,50.7,43.8,38.8,98,91,74,30.03,29.62,8,3,24,0.44
2013-1-9,48.7,46.8,43.3,48.2,46.2,42.8,98,98,98,29.65,29.59,4,2,14,0.44
2013-1-11,28.2,26.7,25.0,27.7,26.1,24.4,98,98,98,30.21,30.18,0,0,0,0.00
2013-1-12,39.2,28.2,23.7,37.8,24.7,20.3,98,88,53,30.33,30.21,2,0,6,0.00
2013-1-13,38.8,29.0,21.7,34.3,25.3,21.0,98,87,57,30.39,30.33,1,0,4,0.00
2013-1-14,36.3,33.5,30.9,31.5,29.4,27.5,93,85,71,30.44,30.36,1,0,4,0.00
2013-1-15,47.7,34.9,28.6,42.1,30.3,25.9,98,85,49,30.56,30.44,1,0,6,0.00
2013-1-16,44.4,32.1,27.0,41.9,29.8,26.4,98,92,59,30.56,30.39,1,0,5,0.00
2013-1-17,37.8,32.5,28.2,37.2,31.9,27.7,98,98,98,30.41,30.18,0,0,4,0.00
2013-1-18,36.5,32.1,29.7,36.0,31.5,29.1,98,98,98,30.24,30.15,0,0,4,0.00
2013-1-19,32.7,30.0,27.3,32.2,29.4,26.8,98,98,98,30.27,30.21,0,0,4,0.00
2013-1-20,34.2,30.4,27.1,33.6,29.9,26.6,98,98,98,30.27,30.15,0,0,4,0.00
2013-1-21,34.5,31.8,29.7,34.0,31.3,29.1,98,98,98,30.15,30.03,0,0,5,0.00
2013-1-22,37.8,33.0,28.9,37.2,32.4,28.4,98,98,98,30.03,29.79,0,0,4,0.00
2013-1-23,41.9,38.7,35.4,41.0,37.5,34.9,98,95,80,30.03,29.74,3,0,8,0.16
2013-1-24,48.2,41.1,34.0,44.1,37.7,31.8,98,89,55,30.09,29.94,2,0,9,0.20
2013-1-25,50.5,43.9,38.8,49.6,43.2,38.3,98,97,91,29.94,29.82,0,0,5,0.16
2013-1-26,47.5,41.3,37.8,42.6,38.5,35.6,98,90,69,29.91,29.76,4,1,10,0.08
2013-1-27,42.1,39.8,38.5,40.1,38.3,37.2,98,95,85,29.94,29.85,4,1,13,0.08
2013-1-28,41.2,39.5,36.7,40.6,39.0,36.1,98,98,98,29.97,29.88,2,0,8,0.44
2013-1-29,47.1,43.8,40.5,46.6,43.3,39.9,98,98,98,30.24,29.97,3,1,12,0.68
2013-1-30,48.6,46.4,43.5,48.0,45.9,43.0,98,98,98,30.27,30.21,1,0,8,0.20
2013-1-31,49.6,46.9,45.1,49.1,46.1,44.6,98,97,92,30.27,30.18,3,0,8,0.20
2013-2-1,54.5,45.5,40.6,54.0,44.0,39.7,98,95,72,30.30,30.21,0,0,5,0.00
2013-2-2,42.1,39.6,36.9,41.5,39.1,36.3,98,98,98,30.27,30.15,1,0,6,0.00
2013-2-3,48.9,43.1,35.8,48.4,41.9,35.2,98,96,85,30.18,30.09,1,0,6,0.08
2013-2-4,54.0,46.3,43.0,45.7,42.3,39.6,98,87,60,30.09,29.76,1,0,8,0.00
2013-2-5,56.3,45.9,42.4,47.1,42.0,37.8,98,87,55,29.82,29.74,5,2,14,0.20
2013-2-6,51.6,44.9,41.9,41.4,38.7,33.4,93,80,50,29.94,29.68,5,2,14,0.04
2013-2-7,54.9,42.0,32.2,40.3,33.2,28.0,98,73,37,30.06,29.68,5,2,15,0.16
2013-2-8,47.7,37.6,30.0,43.0,34.1,29.5,98,88,62,30.18,30.06,1,0,5,0.00
2013-2-9,43.9,40.5,38.1,43.3,39.6,35.8,98,96,89,30.21,30.15,0,0,4,0.00
2013-2-10,48.9,40.5,35.8,48.4,37.3,35.2,98,89,67,30.27,30.21,1,0,5,0.00
2013-2-11,48.4,42.4,36.9,45.3,38.0,34.7,98,85,60,30.24,30.21,1,0,5,0.08
2013-2-12,48.6,45.8,41.7,47.8,43.9,38.7,98,93,83,30.30,30.18,6,1,17,0.04
2013-2-13,48.0,45.4,43.5,45.1,41.3,37.9,98,86,70,30.39,30.18,6,1,13,0.00
2013-2-14,49.6,45.1,40.5,46.6,42.5,39.6,98,91,76,30.44,30.36,2,0,8,0.04
2013-2-15,59.7,43.6,37.6,50.4,39.9,37.0,98,88,52,30.41,30.06,1,0,6,0.00
2013-2-16,56.1,43.4,36.9,45.0,39.7,33.1,98,89,44,30.09,30.00,6,2,17,0.32
2013-2-17,47.3,41.0,37.4,40.5,36.3,32.2,98,85,56,30.12,30.00,2,0,8,0.04
2013-2-18,48.2,40.3,35.1,41.9,35.2,31.5,98,83,53,30.00,29.65,2,0,7,0.00
2013-2-19,53.8,40.8,33.1,39.2,31.9,27.3,95,74,39,29.88,29.62,2,0,8,0.00
2013-2-20,47.3,39.1,32.5,39.2,35.7,31.8,98,89,56,29.94,29.88,3,0,11,0.00
2013-2-21,43.3,41.0,37.6,39.2,37.7,35.1,98,88,74,29.94,29.88,5,3,17,0.04
2013-2-22,45.1,41.3,37.6,41.9,37.8,31.3,98,88,73,29.94,29.59,8,4,25,0.12
2013-2-23,50.7,41.7,37.6,38.5,35.2,31.3,98,79,50,30.27,29.79,4,2,11,0.24
2013-2-24,47.8,42.9,38.1,38.3,34.6,30.4,98,74,52,30.27,29.82,4,2,15,0.00
2013-2-25,55.2,43.0,36.1,39.9,33.0,23.9,95,70,37,30.18,29.76,6,3,23,0.08
2013-2-26,49.8,42.6,35.1,38.1,29.7,24.1,88,63,39,30.24,30.09,3,1,9,0.00
2013-2-27,50.9,43.9,36.1,45.7,38.7,32.7,98,83,54,30.18,30.09,2,0,8,0.28
2013-2-28,51.8,46.1,41.0,51.3,45.5,40.5,98,98,98,30.21,30.06,4,1,13,0.20
2013-3-1,58.1,53.6,50.7,51.6,48.8,46.6,98,84,67,30.27,30.18,5,2,17,0.04
2013-3-2,59.0,48.5,37.0,49.3,43.4,36.5,98,84,55,30.18,29.94,4,1,13,0.44
2013-3-3,54.5,40.2,31.8,48.7,32.9,24.6,98,79,38,30.18,30.09,3,0,9,0.04
2013-3-4,56.5,41.5,27.7,35.4,24.9,17.6,98,59,27,30.18,29.79,4,1,11,0.00
2013-3-5,54.5,46.0,41.0,38.3,27.8,17.4,85,51,33,29.82,29.62,2,0,8,0.00
2013-3-6,43.7,40.6,37.6,43.0,39.6,35.8,98,96,85,29.79,29.47,3,0,8,0.44
2013-3-7,51.1,42.5,35.2,48.6,40.1,34.7,98,92,68,29.97,29.79,1,0,5,0.28
2013-3-8,55.9,40.1,31.1,45.1,34.5,30.6,98,83,47,30.15,29.94,2,0,8,0.00
2013-3-9,59.4,43.1,33.6,47.1,33.6,26.6,98,74,35,30.41,30.15,2,0,6,0.00
2013-3-10,48.9,41.6,34.3,41.9,38.0,31.8,98,88,70,30.59,30.33,1,0,5,0.00
2013-3-11,54.9,46.2,39.7,46.9,41.6,38.1,98,86,55,30.59,30.06,2,0,5,0.00
2013-3-12,55.0,52.0,46.8,50.7,46.7,42.1,98,83,62,30.06,29.94,6,4,16,0.00
2013-3-13,51.4,50.9,50.2,48.6,47.7,47.1,92,89,85,30.09,30.00,6,5,15,0.00
2013-3-14,48.4,48.1,48.0,47.8,47.6,47.5,98,98,98,30.03,30.00,0,0,4,0.00
2013-3-16,42.1,6.0,41.4,32.4,-81.1,-99.9,79,75,67,29.88,29.82,3,2,9,0.00
2013-3-17,53.8,28.7,37.8,36.9,-16.0,-99.9,95,69,37,30.09,29.88,5,2,13,0.00
2013-3-18,57.4,43.1,35.1,42.1,32.3,27.7,92,67,36,30.15,30.03,6,3,18,0.00
2013-3-19,59.9,43.0,33.6,41.4,32.5,22.8,98,73,26,30.12,29.50,4,1,16,0.20
2013-3-20,54.1,45.8,38.5,50.5,39.5,28.2,98,80,56,29.91,29.29,7,4,22,0.56
2013-3-21,38.8,38.6,38.1,31.8,31.4,29.8,77,75,71,30.00,29.91,3,2,10,0.00
2013-3-24,55.9,47.0,40.8,26.2,22.5,19.4,52,39,27,30.09,30.00,2,0,6,0.00
2013-3-25,66.0,49.5,31.6,37.6,25.5,19.4,83,42,24,30.03,29.82,2,1,8,0.00
2013-3-26,66.4,51.7,43.3,36.7,32.9,28.0,73,51,26,29.91,29.85,2,0,8,0.00
2013-3-27,60.8,49.7,42.6,45.9,39.3,35.1,95,69,41,29.88,29.82,1,0,5,0.00
2013-3-28,66.0,51.5,41.4,52.7,42.8,37.9,98,76,40,30.06,29.88,2,0,8,0.04
2013-3-29,68.7,52.7,41.4,50.0,41.0,37.6,98,69,34,30.15,30.06,2,0,8,0.00
2013-3-30,70.2,52.6,38.3,44.8,39.4,36.1,98,66,32,30.15,29.97,2,0,9,0.00
2013-3-31,74.5,55.2,39.2,49.3,40.2,36.9,98,63,26,29.97,29.79,3,0,9,0.00
2013-4-1,65.5,52.5,44.8,50.0,44.4,40.6,98,76,47,30.06,29.85,3,1,10,0.00
2013-4-2,57.2,51.7,48.0,49.3,45.9,43.7,96,81,62,30.09,30.06,2,0,8,0.00
2013-4-3,67.3,54.4,43.0,50.7,41.9,35.6,98,67,35,30.09,29.85,2,0,8,0.00
2013-4-4,56.5,51.8,48.6,54.9,48.9,42.6,98,90,73,29.85,29.56,5,1,14,0.28
2013-4-5,62.8,52.7,47.3,52.5,48.4,43.7,98,87,53,29.76,29.65,6,3,15,0.56
2013-4-6,55.2,47.6,43.3,49.1,44.3,39.9,98,89,63,29.85,29.62,5,2,17,0.36
2013-4-7,45.3,42.4,39.6,44.8,41.8,39.0,98,98,98,29.79,29.41,3,0,9,0.92
2013-4-8,56.1,46.8,41.4,52.7,43.9,40.8,98,90,64,30.18,29.79,2,0,6,0.08
2013-4-9,58.5,49.6,41.7,49.6,41.3,36.5,98,76,46,30.27,30.09,2,0,6,0.00
2013-4-10,65.1,51.4,46.9,53.1,45.5,40.3,98,81,45,30.15,29.85,6,2,15,0.16
2013-4-11,46.9,45.7,45.0,44.2,42.6,40.6,92,89,84,30.18,30.15,3,1,10,0.00
2013-4-13,40.5,40.4,39.9,39.9,39.8,39.4,98,98,98,29.91,29.85,2,0,5,0.16
2013-4-14,57.6,44.1,37.4,51.6,37.2,27.3,98,81,37,29.91,29.82,4,0,10,0.43
2013-4-15,57.6,44.6,36.7,47.8,38.1,33.4,98,81,44,30.09,29.85,3,0,15,0.04
2013-4-16,59.2,44.6,35.8,51.6,36.2,28.2,98,76,36,30.30,30.09,3,0,11,0.04
2013-4-17,66.0,49.4,34.3,45.7,34.6,26.1,98,64,25,30.36,30.30,3,1,8,0.00
2013-4-18,51.8,47.2,43.3,48.2,40.8,35.6,98,79,62,30.36,30.12,3,1,11,0.20
2013-4-19,56.7,50.5,46.9,55.0,49.7,46.4,98,97,89,30.12,29.97,5,2,12,1.03
2013-4-20,57.4,49.3,45.5,50.4,46.5,44.2,98,91,66,30.18,30.09,3,1,10,0.12
2013-4-21,54.3,46.5,38.7,50.0,41.7,35.4,98,84,56,30.27,30.12,3,1,10,0.04
2013-4-22,64.0,47.8,34.3,45.3,31.5,18.7,98,61,25,30.41,30.27,2,1,10,0.00
2013-4-23,65.5,49.4,34.5,42.6,31.1,24.1,97,55,24,30.33,30.15,3,0,10,0.00
2013-4-24,72.1,54.1,36.9,47.5,32.9,25.9,98,52,22,30.24,29.97,3,0,9,0.00
2013-4-25,74.1,57.7,40.5,40.6,34.4,30.7,86,46,23,30.03,29.94,2,0,8,0.00
2013-4-26,71.2,57.7,43.5,49.3,42.7,37.4,98,62,32,30.15,30.03,3,1,11,0.00
2013-4-27,55.0,53.1,49.3,50.4,40.6,30.7,96,65,40,30.12,30.06,5,2,13,0.04
2013-4-28,64.0,51.7,46.2,50.4,42.8,34.0,97,75,37,30.12,29.85,4,2,12,0.04
2013-4-29,57.2,47.0,39.2,51.3,40.4,32.2,98,80,46,30.06,29.82,4,1,8,0.36
2013-4-30,57.6,44.0,34.0,46.2,32.9,20.7,98,70,29,30.33,30.06,2,0,8,0.16
2013-5-1,66.4,49.8,32.5,42.1,30.0,24.6,98,53,23,30.47,30.33,2,1,8,0.00
2013-5-2,73.9,55.8,38.7,44.4,34.4,30.2,87,49,24,30.44,30.27,2,0,8,0.00
2013-5-3,72.1,57.1,41.2,46.0,39.3,35.6,91,55,32,30.30,30.12,3,1,10,0.00
2013-5-4,81.9,62.5,43.5,49.6,39.9,31.5,96,49,22,30.15,29.88,3,1,10,0.00
2013-5-5,86.7,65.6,46.4,49.8,40.3,33.3,91,46,19,29.91,29.68,2,0,8,0.00
2013-5-6,90.1,70.1,49.5,50.2,39.3,35.2,74,36,17,29.76,29.65,2,0,7,0.00
2013-5-7,73.6,61.2,50.5,50.9,47.6,41.9,95,64,37,29.88,29.71,3,1,10,0.00
2013-5-8,67.1,57.1,49.8,50.5,48.9,46.4,95,75,49,30.03,29.88,2,0,8,0.00
2013-5-9,73.6,59.5,48.7,54.0,49.5,44.1,98,73,43,30.12,30.03,2,0,8,0.00
2013-5-10,83.1,65.2,46.9,56.8,47.6,43.3,98,59,27,30.09,30.00,2,0,8,0.00
2013-5-11,85.1,68.5,55.2,54.9,46.0,37.8,79,48,24,30.06,29.88,2,1,8,0.00
2013-5-12,74.7,64.2,56.8,60.3,55.1,48.7,98,75,42,30.00,29.91,3,1,8,0.20
2013-5-13,68.4,56.2,47.8,59.2,50.7,37.4,98,83,53,30.09,29.82,5,2,20,0.20
2013-5-14,68.2,55.2,43.7,43.5,37.7,29.5,90,56,27,30.12,30.00,3,1,9,0.00
2013-5-15,48.9,45.9,44.1,40.8,39.4,38.1,88,78,70,30.03,30.00,0,0,0,0.00
2013-6-16,77.7,65.2,55.8,62.1,53.7,45.0,89,69,32,30.00,29.94,3,0,8,0.04
2013-6-17,78.8,65.4,54.3,54.3,48.3,40.5,95,59,30,30.00,29.79,2,1,10,0.04
2013-6-18,75.2,63.8,54.1,60.8,46.6,35.4,98,60,26,29.88,29.76,2,1,10,0.00
2013-6-19,70.0,58.9,54.3,59.2,49.8,43.0,97,73,39,29.91,29.82,2,1,9,0.04
2013-6-20,59.5,55.3,51.8,55.4,51.6,46.4,98,88,70,30.03,29.85,3,1,11,1.35
2013-6-21,69.3,59.0,52.0,63.7,51.3,44.2,98,78,42,30.06,30.03,1,0,6,0.00
2013-6-22,79.9,65.9,49.6,61.7,48.9,43.2,98,60,30,30.03,29.76,2,1,8,0.00
2013-6-23,73.0,65.3,59.2,62.4,57.9,50.0,98,78,54,29.76,29.50,2,0,8,0.08
2013-6-24,67.8,61.8,56.1,60.6,55.5,50.9,98,81,61,29.62,29.50,3,1,10,0.16
2013-6-25,77.2,62.6,55.2,63.7,55.0,45.0,98,81,35,29.76,29.59,3,1,15,0.44
2013-6-26,76.5,63.1,55.4,67.8,57.9,52.5,98,85,47,29.97,29.76,2,0,8,0.24
2013-6-27,73.8,64.3,58.5,64.4,60.3,56.7,98,88,56,30.09,29.94,0,0,6,0.04
2013-6-28,90.7,73.9,59.4,67.6,59.4,50.7,98,67,28,30.09,29.94,2,0,8,0.00
2013-6-29,87.4,74.2,63.5,63.0,57.0,51.3,91,59,31,30.00,29.88,1,0,6,0.00
2013-6-30,94.6,76.9,59.0,63.3,57.6,50.9,93,56,27,29.91,29.74,2,0,6,0.00
2013-7-1,92.1,76.8,62.6,59.5,56.6,52.7,82,53,29,29.91,29.82,2,1,8,0.00
2013-7-2,85.6,71.4,60.1,57.7,51.8,41.2,85,53,22,30.00,29.91,2,1,8,0.00
2013-7-3,81.7,68.0,58.3,50.0,45.1,38.7,65,45,31,30.06,29.94,2,1,8,0.00
2013-7-4,72.3,62.5,56.7,52.5,48.9,46.0,78,62,42,30.03,29.94,2,0,8,0.00
2013-7-5,76.8,64.9,55.4,54.1,50.6,46.0,90,63,34,29.94,29.85,2,0,8,0.00
2013-7-6,81.7,65.2,54.3,58.6,52.2,46.2,98,67,33,29.88,29.76,2,0,8,0.00
2013-7-7,77.4,67.0,55.4,57.0,52.7,48.2,93,62,39,29.85,29.79,2,1,8,0.00
2013-7-8,80.4,65.7,56.3,56.1,52.0,48.0,87,64,36,30.00,29.85,2,0,8,0.00
2013-7-9,88.5,71.5,56.3,58.8,51.9,44.4,98,55,28,30.00,29.91,2,0,10,0.00
2013-7-10,72.5,65.0,56.1,54.1,50.2,46.6,80,60,46,29.97,29.85,2,1,6,0.00
2013-7-11,73.6,60.5,54.3,49.5,45.3,40.8,78,59,33,30.00,29.91,3,1,9,0.00
2013-7-12,70.7,58.9,49.5,50.9,46.6,43.7,83,65,40,30.00,29.91,2,0,8,0.00
2013-7-13,79.5,64.2,48.4,53.1,45.1,37.9,95,55,27,30.09,30.00,2,0,7,0.00
2013-7-14,84.7,67.4,50.0,55.4,44.0,35.6,94,49,21,30.03,29.88,2,1,6,0.00
2013-7-15,83.1,66.6,51.3,51.6,45.1,39.6,85,50,24,29.94,29.79,2,1,11,0.00
2013-7-16,89.8,72.5,54.9,58.6,48.3,42.3,84,46,20,29.82,29.71,2,0,7,0.00
2013-7-17,73.4,65.6,57.4,58.6,54.1,50.5,89,68,46,30.09,29.79,3,1,11,0.00
2013-7-18,79.5,66.2,56.1,55.4,53.4,51.1,91,66,40,30.12,30.03,2,0,8,0.00
2013-7-19,83.1,66.3,52.5,57.2,54.2,51.3,98,69,39,30.06,29.94,2,1,8,0.00
2013-7-20,78.4,63.9,53.2,57.7,54.6,52.0,97,75,42,30.00,29.85,2,0,8,0.00
2013-7-21,76.6,65.1,56.5,57.4,54.9,52.2,97,72,45,29.88,29.79,2,0,8,0.00
2013-7-22,78.4,65.3,57.2,57.7,55.1,52.9,95,73,43,29.97,29.82,2,0,6,0.00
2013-7-23,89.2,69.7,54.5,59.2,52.0,45.7,98,60,24,29.97,29.85,2,0,8,0.00
2013-7-24,88.7,72.0,54.9,58.5,49.0,40.3,92,50,22,29.94,29.88,2,0,10,0.00
2013-7-25,87.6,70.5,54.0,57.6,45.8,35.6,90,47,19,30.00,29.94,3,0,8,0.00
2013-7-26,88.7,69.8,53.6,55.9,45.1,33.4,93,48,19,30.06,29.97,2,1,8,0.00
2013-7-27,80.2,66.2,52.9,50.7,45.4,39.4,83,50,29,30.06,29.88,2,1,8,0.00
2013-7-28,73.9,62.7,52.7,53.1,49.5,46.4,93,64,40,29.91,29.85,4,1,13,0.00
2013-7-29,74.1,63.1,55.0,53.8,50.8,48.6,84,66,44,29.91,29.85,2,0,8,0.00
2013-7-30,79.9,66.8,54.9,55.4,51.9,47.8,92,62,36,30.03,29.91,2,1,8,0.00
2013-7-31,74.7,63.3,56.7,63.1,57.1,53.2,97,82,49,30.03,29.91,1,0,6,0.00
2013-8-1,66.6,61.8,56.3,60.6,54.4,51.8,98,78,59,29.97,29.94,3,1,9,0.00
2013-8-2,61.9,59.9,58.1,60.4,56.6,52.5,98,89,76,30.03,29.97,3,0,8,0.12
2013-8-3,75.0,64.9,58.8,66.2,58.1,54.7,98,81,51,30.03,29.94,1,0,8,0.08
2013-8-4,83.7,68.8,56.1,60.1,55.9,52.9,98,68,38,29.97,29.85,2,0,8,0.00
2013-8-5,87.1,71.5,57.4,65.8,53.3,45.0,98,58,28,29.91,29.82,2,0,6,0.00
2013-8-6,81.9,64.3,54.1,56.3,49.5,40.8,90,62,24,29.91,29.79,1,0,5,0.00
2013-8-7,88.3,71.4,55.6,60.4,50.1,43.9,95,52,24,29.91,29.85,2,0,9,0.00
2013-8-8,86.2,69.3,57.2,57.6,53.0,49.1,92,60,31,29.94,29.85,2,0,8,0.00
2013-8-9,86.4,70.4,56.1,57.7,50.9,47.8,86,54,30,29.85,29.74,3,1,9,0.00
2013-8-10,82.4,69.3,59.2,66.0,59.5,54.9,98,74,42,29.91,29.79,2,0,8,0.16
2013-8-11,80.2,68.3,57.9,59.5,52.9,48.2,87,61,34,29.97,29.88,3,1,10,0.00
2013-8-12,81.5,67.9,57.0,56.3,51.9,48.4,91,60,33,29.97,29.91,2,1,8,0.00
2013-8-13,83.3,68.9,55.9,56.7,50.6,41.5,93,58,29,30.00,29.82,2,0,6,0.00
2013-8-14,88.0,68.5,56.8,63.1,54.8,46.6,96,67,25,29.88,29.82,2,0,8,0.00
2013-8-15,64.4,63.6,63.0,62.6,62.0,61.2,96,94,92,29.85,29.82,0,0,0,0.00
2013-8-22,69.4,67.6,65.1,54.3,51.8,49.5,66,57,49,29.74,29.74,0,0,4,0.00
2013-8-23,76.1,66.6,60.6,56.1,52.9,47.8,81,63,43,29.79,29.74,3,1,10,0.00
2013-8-24,78.8,66.4,57.6,60.6,52.1,43.9,93,63,33,29.82,29.76,2,0,8,0.00
2013-8-25,77.2,63.9,52.7,57.4,52.2,48.0,95,68,39,29.85,29.76,2,0,6,0.00
2013-8-26,78.8,66.1,59.7,62.6,56.1,42.8,94,74,34,29.85,29.76,3,0,10,0.00
2013-8-27,84.4,70.0,60.6,63.9,56.1,50.2,95,66,32,29.85,29.71,2,0,8,0.04
2013-8-28,79.2,68.5,59.9,70.2,59.7,54.1,98,77,44,29.79,29.74,2,0,8,0.20
2013-8-29,72.7,65.9,63.0,71.4,64.0,61.3,98,94,77,29.91,29.76,2,0,8,0.84
2013-8-30,79.9,67.4,58.1,67.1,55.7,45.0,98,71,32,30.06,29.91,3,1,10,0.00
2013-8-31,84.6,66.9,53.2,60.6,53.8,49.8,98,68,32,30.00,29.74,2,0,6,0.00
2013-9-1,84.0,69.5,57.2,63.1,54.5,49.1,98,64,33,29.79,29.71,2,1,9,0.00
2013-9-2,85.5,70.9,58.8,61.0,53.3,48.4,94,58,30,29.85,29.76,3,1,8,0.00
2013-9-3,74.5,64.3,58.8,67.8,60.3,54.5,98,88,59,29.94,29.85,1,0,5,0.20
2013-9-4,68.4,62.7,57.9,63.9,59.5,56.5,98,90,74,29.94,29.88,2,0,6,0.00
2013-9-5,76.3,64.1,58.6,66.2,59.3,56.7,98,86,54,29.94,29.82,2,0,8,0.63
2013-9-6,73.6,63.7,59.9,70.7,60.7,58.1,98,91,63,30.03,29.85,2,0,8,0.91
2013-9-7,74.5,64.4,58.1,63.1,59.5,55.8,98,85,53,30.00,29.91,1,0,5,0.00
2013-9-8,81.1,64.7,56.1,63.7,57.9,55.4,98,82,43,30.03,29.91,2,0,8,0.00
2013-9-9,80.8,65.2,56.3,64.0,58.3,55.6,98,81,47,29.97,29.85,2,0,6,0.00
2013-9-10,79.3,65.4,56.7,63.0,58.7,56.1,98,82,48,29.91,29.79,2,0,8,0.00
2013-9-11,61.7,59.4,57.4,59.4,58.0,56.8,98,95,90,29.82,29.79,0,0,0,0.00
2013-9-22,56.3,55.6,55.2,53.1,52.5,52.0,91,89,87,29.65,29.62,4,3,13,0.00
2013-9-23,63.1,56.4,51.6,54.3,51.1,47.5,98,83,61,29.88,29.65,5,3,13,0.04
2013-9-24,68.4,55.6,49.3,56.1,46.5,38.1,98,75,34,29.85,29.74,3,1,10,0.04
2013-9-25,57.2,51.1,46.4,54.1,48.0,42.4,98,90,63,29.94,29.76,1,0,6,0.00
2013-9-26,66.4,52.9,45.7,55.4,46.4,42.1,98,81,46,30.03,29.91,1,0,5,0.00
2013-9-27,57.9,54.1,48.6,51.8,49.5,45.7,97,85,71,30.03,29.76,4,2,10,0.04
2013-9-28,59.7,55.1,50.5,59.2,54.0,49.8,98,96,84,29.76,29.26,7,3,25,1.52
2013-9-29,54.9,52.2,49.3,52.5,49.8,46.0,98,91,72,29.47,29.09,6,3,17,0.68
2013-9-30,60.4,50.5,46.8,54.7,48.5,45.0,98,93,66,29.82,29.35,5,3,17,0.71
2013-10-1,59.7,51.0,46.8,50.0,45.8,41.9,96,83,53,30.00,29.79,5,2,15,0.04
2013-10-2,54.7,50.6,46.9,49.6,46.4,43.0,98,86,70,30.06,29.97,4,1,13,0.32
2013-10-3,61.3,50.8,45.3,54.3,47.3,43.9,98,89,59,30.36,30.09,1,0,6,0.00
2013-10-4,68.5,51.5,39.6,52.2,43.9,39.0,98,79,37,30.39,30.27,1,0,5,0.00
2013-10-5,72.3,55.3,44.6,56.8,45.6,37.8,98,76,34,30.27,30.09,1,0,7,0.00
2013-10-6,80.6,63.9,47.7,58.1,43.6,34.3,98,54,23,29.91,29.79,3,1,11,0.00
2013-10-7,63.5,54.8,51.4,52.5,47.3,38.7,98,78,43,29.91,29.82,6,3,15,0.08
2013-10-8,59.4,50.0,43.7,53.8,46.6,42.3,98,88,57,29.97,29.88,3,0,8,0.12
2013-10-9,62.1,49.1,42.1,54.5,43.2,37.8,98,83,45,30.03,29.85,1,0,5,0.00
2013-10-10,47.7,46.6,44.2,46.6,45.6,43.7,98,97,94,29.88,29.85,0,0,4,0.00
2013-10-15,64.6,52.4,43.0,56.1,46.6,42.4,98,82,51,30.27,30.09,2,0,5,0.00
2013-10-16,52.0,48.3,44.2,50.9,46.8,42.8,98,95,84,30.09,30.06,1,0,6,0.00
2013-10-17,54.3,47.9,43.5,49.1,46.3,43.0,98,94,75,30.18,30.09,1,0,6,0.00
2013-10-18,62.2,48.1,40.3,52.9,45.2,39.7,98,91,59,30.15,30.06,1,0,5,0.00
2013-10-19,50.7,46.3,42.1,49.1,45.6,41.5,98,97,93,30.09,30.03,0,0,5,0.00
2013-10-20,49.5,46.5,44.8,48.6,45.8,44.2,98,97,93,30.12,30.06,1,0,5,0.00
2013-10-21,53.1,47.2,44.6,50.4,46.2,44.1,98,96,84,30.06,30.00,0,0,5,0.00
2013-10-22,57.0,48.0,45.0,52.5,46.9,44.4,98,96,74,30.03,29.94,0,0,4,0.00
2013-10-23,61.7,48.1,41.7,54.1,46.0,41.2,98,93,65,29.94,29.88,0,0,4,0.00
2013-10-24,52.7,48.3,45.1,52.2,47.6,44.6,98,97,93,30.03,29.91,0,0,4,0.00
2013-10-25,51.3,48.1,43.5,49.8,47.2,43.0,98,96,91,30.21,30.00,0,0,5,0.00
2013-10-26,51.3,48.3,45.5,49.1,46.2,45.0,98,93,82,30.24,30.09,0,0,6,0.00
2013-10-27,52.7,47.4,42.1,52.2,46.4,41.5,98,96,92,30.09,29.82,1,0,5,0.08
2013-10-28,61.9,46.8,38.7,53.8,38.7,28.9,98,78,34,29.85,29.79,2,0,6,0.00
2013-10-29,62.1,44.3,34.9,47.8,35.4,30.2,98,76,34,29.94,29.85,2,0,6,0.00
2013-10-30,58.6,46.8,36.0,48.0,39.5,34.7,98,78,49,30.03,29.91,4,1,9,0.00
2013-10-31,54.9,50.8,48.6,51.3,47.0,40.1,98,87,68,30.15,30.00,3,0,12,0.00
2013-11-1,64.8,54.3,49.6,54.0,49.3,45.1,98,85,52,30.18,29.74,1,0,5,0.00
2013-11-2,53.1,49.5,42.6,51.6,43.2,35.1,98,80,53,29.79,29.41,9,3,25,0.44
2013-11-3,57.2,44.0,37.4,45.9,38.3,30.0,98,83,40,30.00,29.79,2,0,8,0.04
2013-11-4,54.1,42.5,35.8,46.8,34.8,27.3,98,78,39,30.09,29.97,1,0,6,0.04
2013-11-5,55.9,47.0,42.1,53.2,44.3,40.3,98,91,63,30.15,29.91,4,1,10,0.04
2013-11-6,52.2,47.0,41.9,47.7,44.4,41.4,98,91,69,30.21,29.94,1,0,5,0.04
2013-11-7,50.5,48.0,46.6,48.6,47.2,43.9,98,97,79,29.91,29.62,6,3,18,1.12
2013-11-8,56.1,48.5,43.3,46.6,42.8,39.4,98,81,57,30.06,29.88,4,1,16,0.00
2013-11-9,51.4,44.9,37.9,45.1,41.7,37.4,98,89,67,30.06,29.97,0,0,5,0.04
2013-11-10,49.3,45.9,43.2,47.5,44.9,42.6,98,96,89,30.06,30.00,1,0,7,0.00
2013-11-11,60.3,47.0,38.3,58.3,43.7,37.8,98,89,54,30.06,29.88,1,0,6,0.00
2013-11-12,61.7,51.2,45.7,60.1,49.5,43.5,98,94,77,30.27,29.91,3,0,10,0.16
2013-11-13,52.2,51.1,50.2,50.5,49.7,47.8,98,95,90,30.27,30.27,4,2,12,0.00
2013-11-14,44.8,44.0,42.8,44.2,43.4,42.3,98,98,98,30.00,29.97,0,0,4,0.00
2013-11-15,47.5,44.1,41.9,46.8,43.0,41.2,98,96,86,29.97,29.23,7,3,17,0.40
2013-11-16,48.4,42.9,38.1,45.9,38.1,33.4,98,84,61,29.68,29.26,4,2,13,0.55
2013-11-17,52.3,46.5,42.4,49.5,42.5,36.1,97,86,74,29.79,29.68,6,3,17,0.04
2013-11-18,51.6,48.9,46.2,50.9,48.3,45.5,98,98,96,29.82,29.47,5,1,14,0.68
2013-11-19,53.4,42.9,34.3,51.8,38.8,18.3,98,87,45,29.97,29.47,6,1,19,0.20
2013-11-20,46.8,34.2,26.6,36.0,24.6,18.9,98,70,39,30.39,29.97,2,0,8,0.00
2013-11-21,46.0,31.5,24.8,36.7,23.8,18.5,98,77,38,30.56,30.39,1,0,6,0.00
2013-11-22,49.6,33.4,25.5,33.8,25.6,21.9,98,76,37,30.53,30.36,1,0,5,0.00
2013-11-23,51.1,36.2,27.7,39.7,29.1,25.7,98,78,40,30.36,30.09,1,0,5,0.00
2013-11-24,55.8,38.1,29.5,40.1,31.8,28.0,98,81,38,30.15,30.06,1,0,4,0.00
2013-11-25,58.1,41.2,32.9,51.6,35.9,31.5,98,84,37,30.21,30.15,2,0,4,0.00
2013-11-26,56.3,42.6,34.3,48.0,37.3,32.9,98,84,45,30.18,30.00,0,0,4,0.00
2013-11-27,57.9,44.7,36.3,43.9,37.3,34.5,97,77,44,30.00,29.85,1,0,4,0.00
2013-11-28,57.4,40.8,35.2,49.1,37.2,34.2,98,89,46,30.09,29.91,0,0,4,0.00
2013-11-29,47.5,43.6,37.0,45.7,42.7,36.5,98,97,89,30.21,30.09,2,0,6,0.00
2013-11-30,50.5,47.8,44.1,48.2,44.4,39.9,98,88,68,30.24,30.00,4,1,11,0.12
2013-12-1,52.9,50.5,41.0,52.2,46.6,35.6,98,87,67,30.00,29.65,6,4,19,0.04
2013-12-2,50.7,39.1,35.2,37.2,32.2,23.4,97,78,39,29.94,29.71,3,1,10,0.00
2013-12-3,42.3,32.8,26.4,35.2,23.5,16.3,98,71,39,30.21,29.94,2,0,8,0.00
2013-12-4,41.0,28.1,22.8,32.7,21.4,14.4,98,78,39,30.24,30.18,2,0,6,0.00
2013-12-5,33.3,26.4,21.4,28.2,18.3,6.1,98,74,39,30.21,30.09,4,0,10,0.00
2013-12-6,36.9,25.9,19.2,9.9,3.6,0.3,48,38,31,30.12,30.03,4,2,13,0.00
2013-12-7,32.2,20.1,13.8,7.3,2.6,-2.2,67,47,31,30.33,30.12,2,0,8,0.00
2013-12-8,35.2,23.2,14.4,15.6,10.5,5.0,79,60,33,30.47,30.33,2,0,6,0.00
2013-12-9,32.4,27.3,18.1,20.5,16.8,12.6,84,65,47,30.47,30.39,0,0,4,0.00
2013-12-10,39.4,34.5,31.1,30.2,26.8,20.3,82,74,63,30.39,30.30,1,0,4,0.00
2013-12-11,45.3,33.9,28.2,39.9,29.7,25.7,98,85,58,30.30,30.06,1,0,5,0.00
2013-12-12,40.8,35.2,28.4,39.7,34.2,27.9,98,96,82,30.06,29.94,2,0,6,0.20
2013-12-13,46.8,44.3,40.3,46.2,43.8,39.7,98,98,98,30.33,30.03,1,0,7,0.12
2013-12-14,48.2,45.0,41.4,46.6,43.2,40.8,98,94,79,30.33,30.24,3,0,12,0.00
2013-12-15,50.9,48.4,45.5,48.2,46.2,41.2,98,92,76,30.36,30.21,4,1,13,0.08
2013-12-16,46.0,43.1,39.7,45.5,42.6,39.2,98,98,98,30.39,30.18,1,0,6,0.00
2013-12-17,44.4,40.7,37.6,43.9,40.1,37.0,98,98,97,30.18,30.00,1,0,6,0.00
2013-12-18,43.2,39.2,30.6,42.6,38.6,30.0,98,98,98,30.06,29.94,1,0,6,0.12
2013-12-19,41.5,31.4,25.7,40.8,27.4,21.6,98,87,47,30.24,30.03,0,0,5,0.00
2013-12-20,40.3,34.8,30.2,39.7,33.7,27.5,98,96,89,30.09,29.62,4,0,11,0.64
2013-12-21,44.2,41.0,37.9,43.7,40.4,37.4,98,98,98,30.06,29.74,0,0,5,0.32
2013-12-22,48.6,46.5,43.9,48.0,46.0,43.3,98,98,98,30.18,30.06,4,0,10,0.28
2013-12-23,56.7,47.4,39.4,50.5,45.8,38.8,98,95,61,30.41,30.03,7,3,21,0.08
2013-12-24,50.5,39.6,33.3,49.1,37.6,32.7,98,93,64,30.50,30.39,1,0,4,0.00
2013-12-25,39.0,34.5,32.2,38.5,33.9,31.6,98,98,98,30.41,30.30,0,0,4,0.00
2013-12-26,50.7,37.2,32.2,50.2,35.8,31.6,98,95,74,30.30,30.09,0,0,3,0.00
2013-12-27,46.8,39.3,31.8,46.0,38.7,31.3,98,98,91,30.27,30.03,4,0,12,0.08
2013-12-28,47.7,41.7,36.0,47.1,41.2,35.4,98,98,98,30.41,30.27,0,0,4,0.00
2013-12-29,42.8,39.1,36.9,42.3,38.6,36.3,98,98,98,30.39,30.21,0,0,4,0.00
2013-12-30,43.3,39.9,36.0,42.8,39.3,35.4,98,98,98,30.21,30.03,1,0,6,0.04
2013-12-31,46.4,43.0,39.2,45.9,42.5,38.7,98,98,98,30.27,30.09,1,0,6,0.04
2014-1-1,43.9,39.5,34.3,43.3,39.0,33.8,98,98,98,30.30,30.15,0,0,4,0.00
2014-1-2,48.2,44.0,40.6,47.3,42.4,40.1,98,95,76,30.15,29.79,4,0,15,0.64